Year,Month,Day,Hour,Minute,Value (Times are PST for temperature in C)
2017,06,22,00,00,14.20
2017,06,22,00,01,14.20
2017,06,22,00,02,14.20
2017,06,22,00,03,14.20
2017,06,22,00,04,14.10
2017,06,22,00,05,14.10
2017,06,22,00,06,14.10
2017,06,22,00,07,14.10
2017,06,22,00,08,14.00
2017,06,22,00,09,14.00
2017,06,22,00,10,14.00
2017,06,22,00,11,14.00
2017,06,22,00,12,14.00
2017,06,22,00,13,14.00
2017,06,22,00,14,14.00
2017,06,22,00,15,13.90
2017,06,22,00,16,13.90
2017,06,22,00,17,13.90
2017,06,22,00,18,13.90
2017,06,22,00,19,13.90
2017,06,22,00,20,13.90
2017,06,22,00,21,13.90
2017,06,22,00,22,13.80
2017,06,22,00,23,13.80
2017,06,22,00,24,13.80
2017,06,22,00,25,13.80
2017,06,22,00,26,13.80
2017,06,22,00,27,13.80
2017,06,22,00,28,13.80
2017,06,22,00,29,13.80
2017,06,22,00,30,13.80
2017,06,22,00,31,13.80
2017,06,22,00,32,13.70
2017,06,22,00,33,13.70
2017,06,22,00,34,13.70
2017,06,22,00,35,13.70
2017,06,22,00,36,13.70
2017,06,22,00,37,13.60
2017,06,22,00,38,13.60
2017,06,22,00,39,13.60
2017,06,22,00,40,13.60
2017,06,22,00,41,13.60
2017,06,22,00,42,13.60
2017,06,22,00,43,13.60
2017,06,22,00,44,13.60
2017,06,22,00,45,13.60
2017,06,22,00,46,13.60
2017,06,22,00,47,13.60
2017,06,22,00,48,13.60
2017,06,22,00,49,13.50
2017,06,22,00,50,13.50
2017,06,22,00,51,13.50
2017,06,22,00,52,13.50
2017,06,22,00,53,13.50
2017,06,22,00,54,13.50
2017,06,22,00,55,13.50
2017,06,22,00,56,13.40
2017,06,22,00,57,13.40
2017,06,22,00,58,13.40
2017,06,22,00,59,13.40
2017,06,22,01,00,13.40
2017,06,22,01,01,13.30
2017,06,22,01,02,13.30
2017,06,22,01,03,13.30
2017,06,22,01,04,13.30
2017,06,22,01,05,13.30
2017,06,22,01,06,13.30
2017,06,22,01,07,13.30
2017,06,22,01,08,13.30
2017,06,22,01,09,13.30
2017,06,22,01,10,13.30
2017,06,22,01,11,13.30
2017,06,22,01,12,13.30
2017,06,22,01,13,13.30
2017,06,22,01,14,13.30
2017,06,22,01,15,13.30
2017,06,22,01,16,13.40
2017,06,22,01,17,13.40
2017,06,22,01,18,13.40
2017,06,22,01,19,13.40
2017,06,22,01,20,13.40
2017,06,22,01,21,13.50
2017,06,22,01,22,13.50
2017,06,22,01,23,13.50
2017,06,22,01,24,13.50
2017,06,22,01,25,13.40
2017,06,22,01,26,13.40
2017,06,22,01,27,13.40
2017,06,22,01,28,13.40
2017,06,22,01,29,13.40
2017,06,22,01,30,13.40
2017,06,22,01,31,13.40
2017,06,22,01,32,13.40
2017,06,22,01,33,13.40
2017,06,22,01,34,13.40
2017,06,22,01,35,13.40
2017,06,22,01,36,13.40
2017,06,22,01,37,13.40
2017,06,22,01,38,13.40
2017,06,22,01,39,13.40
2017,06,22,01,40,13.40
2017,06,22,01,41,13.40
2017,06,22,01,42,13.40
2017,06,22,01,43,13.40
2017,06,22,01,44,13.40
2017,06,22,01,45,13.40
2017,06,22,01,46,13.40
2017,06,22,01,47,13.30
2017,06,22,01,48,13.30
2017,06,22,01,49,13.30
2017,06,22,01,50,13.30
2017,06,22,01,51,13.30
2017,06,22,01,52,13.30
2017,06,22,01,53,13.30
2017,06,22,01,54,13.30
2017,06,22,01,55,13.30
2017,06,22,01,56,13.30
2017,06,22,01,57,13.30
2017,06,22,01,58,13.30
2017,06,22,01,59,13.30
2017,06,22,02,00,13.30
2017,06,22,02,01,13.30
2017,06,22,02,02,13.30
2017,06,22,02,03,13.30
2017,06,22,02,04,13.30
2017,06,22,02,05,13.20
2017,06,22,02,06,13.20
2017,06,22,02,07,13.20
2017,06,22,02,08,13.20
2017,06,22,02,09,13.20
2017,06,22,02,10,13.20
2017,06,22,02,11,13.20
2017,06,22,02,12,13.10
2017,06,22,02,13,13.10
2017,06,22,02,14,13.10
2017,06,22,02,15,13.10
2017,06,22,02,16,13.20
2017,06,22,02,17,13.20
2017,06,22,02,18,13.20
2017,06,22,02,19,13.20
2017,06,22,02,20,13.20
2017,06,22,02,21,13.20
2017,06,22,02,22,13.20
2017,06,22,02,23,13.20
2017,06,22,02,24,13.20
2017,06,22,02,25,13.20
2017,06,22,02,26,13.10
2017,06,22,02,27,13.10
2017,06,22,02,28,13.10
2017,06,22,02,29,13.10
2017,06,22,02,30,13.10
2017,06,22,02,31,13.10
2017,06,22,02,32,13.10
2017,06,22,02,33,13.10
2017,06,22,02,34,13.10
2017,06,22,02,35,13.10
2017,06,22,02,36,13.10
2017,06,22,02,37,13.10
2017,06,22,02,38,13.00
2017,06,22,02,39,13.00
2017,06,22,02,40,12.90
2017,06,22,02,41,12.90
2017,06,22,02,42,12.90
2017,06,22,02,43,12.80
2017,06,22,02,44,12.80
2017,06,22,02,45,12.80
2017,06,22,02,46,12.80
2017,06,22,02,47,12.80
2017,06,22,02,48,12.70
2017,06,22,02,49,12.70
2017,06,22,02,50,12.70
2017,06,22,02,51,12.60
2017,06,22,02,52,12.50
2017,06,22,02,53,12.50
2017,06,22,02,54,12.40
2017,06,22,02,55,12.40
2017,06,22,02,56,12.40
2017,06,22,02,57,12.40
2017,06,22,02,58,12.40
2017,06,22,02,59,12.40
2017,06,22,03,00,12.40
2017,06,22,03,01,12.40
2017,06,22,03,02,12.40
2017,06,22,03,03,12.40
2017,06,22,03,04,12.40
2017,06,22,03,05,12.40
2017,06,22,03,06,12.40
2017,06,22,03,07,12.30
2017,06,22,03,08,12.30
2017,06,22,03,09,12.20
2017,06,22,03,10,12.20
2017,06,22,03,11,12.20
2017,06,22,03,12,12.10
2017,06,22,03,13,12.10
2017,06,22,03,14,12.00
2017,06,22,03,15,11.90
2017,06,22,03,16,11.90
2017,06,22,03,17,11.90
2017,06,22,03,18,11.90
2017,06,22,03,19,11.90
2017,06,22,03,20,11.90
2017,06,22,03,21,12.00
2017,06,22,03,22,12.00
2017,06,22,03,23,12.10
2017,06,22,03,24,12.10
2017,06,22,03,25,12.10
2017,06,22,03,26,12.10
2017,06,22,03,27,12.10
2017,06,22,03,28,12.10
2017,06,22,03,29,12.10
2017,06,22,03,30,12.10
2017,06,22,03,31,12.20
2017,06,22,03,32,12.20
2017,06,22,03,33,12.20
2017,06,22,03,34,12.20
2017,06,22,03,35,12.20
2017,06,22,03,36,12.20
2017,06,22,03,37,12.20
2017,06,22,03,38,12.20
2017,06,22,03,39,12.10
2017,06,22,03,40,12.10
2017,06,22,03,41,12.00
2017,06,22,03,42,12.00
2017,06,22,03,43,11.90
2017,06,22,03,44,11.90
2017,06,22,03,45,11.90
2017,06,22,03,46,11.90
2017,06,22,03,47,11.80
2017,06,22,03,48,11.80
2017,06,22,03,49,11.80
2017,06,22,03,50,11.80
2017,06,22,03,51,11.80
2017,06,22,03,52,11.80
2017,06,22,03,53,11.80
2017,06,22,03,54,11.80
2017,06,22,03,55,11.80
2017,06,22,03,56,11.80
2017,06,22,03,57,11.80
2017,06,22,03,58,11.80
2017,06,22,03,59,11.80
2017,06,22,04,00,11.80
2017,06,22,04,01,11.80
2017,06,22,04,02,11.80
2017,06,22,04,03,11.90
2017,06,22,04,04,11.90
2017,06,22,04,05,11.90
2017,06,22,04,06,11.90
2017,06,22,04,07,11.90
2017,06,22,04,08,11.90
2017,06,22,04,09,11.90
2017,06,22,04,10,11.90
2017,06,22,04,11,11.90
2017,06,22,04,12,11.90
2017,06,22,04,13,11.90
2017,06,22,04,14,11.90
2017,06,22,04,15,11.80
2017,06,22,04,16,11.80
2017,06,22,04,17,11.80
2017,06,22,04,18,11.80
2017,06,22,04,19,11.80
2017,06,22,04,20,11.80
2017,06,22,04,21,11.80
2017,06,22,04,22,11.80
2017,06,22,04,23,11.80
2017,06,22,04,24,11.80
2017,06,22,04,25,11.80
2017,06,22,04,26,11.80
2017,06,22,04,27,11.70
2017,06,22,04,28,11.70
2017,06,22,04,29,11.70
2017,06,22,04,30,11.60
2017,06,22,04,31,11.60
2017,06,22,04,32,11.60
2017,06,22,04,33,11.50
2017,06,22,04,34,11.50
2017,06,22,04,35,11.40
2017,06,22,04,36,11.40
2017,06,22,04,37,11.30
2017,06,22,04,38,11.30
2017,06,22,04,39,11.30
2017,06,22,04,40,11.30
2017,06,22,04,41,11.30
2017,06,22,04,42,11.20
2017,06,22,04,43,11.20
2017,06,22,04,44,11.20
2017,06,22,04,45,11.20
2017,06,22,04,46,11.20
2017,06,22,04,47,11.20
2017,06,22,04,48,11.10
2017,06,22,04,49,11.10
2017,06,22,04,50,11.00
2017,06,22,04,51,11.00
2017,06,22,04,52,11.00
2017,06,22,04,53,10.90
2017,06,22,04,54,10.90
2017,06,22,04,55,10.90
2017,06,22,04,56,10.80
2017,06,22,04,57,10.80
2017,06,22,04,58,10.90
2017,06,22,04,59,10.90
2017,06,22,05,00,10.90
2017,06,22,05,01,10.90
2017,06,22,05,02,10.90
2017,06,22,05,03,11.00
2017,06,22,05,04,11.00
2017,06,22,05,05,11.00
2017,06,22,05,06,11.10
2017,06,22,05,07,11.10
2017,06,22,05,08,11.10
2017,06,22,05,09,11.10
2017,06,22,05,10,11.10
2017,06,22,05,11,11.00
2017,06,22,05,12,11.00
2017,06,22,05,13,11.00
2017,06,22,05,14,11.00
2017,06,22,05,15,11.00
2017,06,22,05,16,11.00
2017,06,22,05,17,11.00
2017,06,22,05,18,11.00
2017,06,22,05,19,11.10
2017,06,22,05,20,11.10
2017,06,22,05,21,11.10
2017,06,22,05,22,11.10
2017,06,22,05,23,11.10
2017,06,22,05,24,11.10
2017,06,22,05,25,11.10
2017,06,22,05,26,11.10
2017,06,22,05,27,11.10
2017,06,22,05,28,11.10
2017,06,22,05,29,11.10
2017,06,22,05,30,11.10
2017,06,22,05,31,11.10
2017,06,22,05,32,11.20
2017,06,22,05,33,11.20
2017,06,22,05,34,11.20
2017,06,22,05,35,11.20
2017,06,22,05,36,11.20
2017,06,22,05,37,11.20
2017,06,22,05,38,11.20
2017,06,22,05,39,11.20
2017,06,22,05,40,11.20
2017,06,22,05,41,11.30
2017,06,22,05,42,11.30
2017,06,22,05,43,11.30
2017,06,22,05,44,11.30
2017,06,22,05,45,11.30
2017,06,22,05,46,11.30
2017,06,22,05,47,11.30
2017,06,22,05,48,11.30
2017,06,22,05,49,11.30
2017,06,22,05,50,11.30
2017,06,22,05,51,11.40
2017,06,22,05,52,11.40
2017,06,22,05,53,11.40
2017,06,22,05,54,11.40
2017,06,22,05,55,11.40
2017,06,22,05,56,11.40
2017,06,22,05,57,11.50
2017,06,22,05,58,11.50
2017,06,22,05,59,11.60
2017,06,22,06,00,11.60
2017,06,22,06,01,11.70
2017,06,22,06,02,11.70
2017,06,22,06,03,11.70
2017,06,22,06,04,11.70
2017,06,22,06,05,11.70
2017,06,22,06,06,11.70
2017,06,22,06,07,11.70
2017,06,22,06,08,11.80
2017,06,22,06,09,11.80
2017,06,22,06,10,11.80
2017,06,22,06,11,11.80
2017,06,22,06,12,11.80
2017,06,22,06,13,11.80
2017,06,22,06,14,11.80
2017,06,22,06,15,11.80
2017,06,22,06,16,11.80
2017,06,22,06,17,11.80
2017,06,22,06,18,11.80
2017,06,22,06,19,11.80
2017,06,22,06,20,11.80
2017,06,22,06,21,11.80
2017,06,22,06,22,11.80
2017,06,22,06,23,11.80
2017,06,22,06,24,11.80
2017,06,22,06,25,11.80
2017,06,22,06,26,11.80
2017,06,22,06,27,11.90
2017,06,22,06,28,11.90
2017,06,22,06,29,11.90
2017,06,22,06,30,11.90
2017,06,22,06,31,11.90
2017,06,22,06,32,11.90
2017,06,22,06,33,12.00
2017,06,22,06,34,12.00
2017,06,22,06,35,12.00
2017,06,22,06,36,12.10
2017,06,22,06,37,12.10
2017,06,22,06,38,12.20
2017,06,22,06,39,12.20
2017,06,22,06,40,12.20
2017,06,22,06,41,12.20
2017,06,22,06,42,12.30
2017,06,22,06,43,12.30
2017,06,22,06,44,12.30
2017,06,22,06,45,12.30
2017,06,22,06,46,12.30
2017,06,22,06,47,12.30
2017,06,22,06,48,12.30
2017,06,22,06,49,12.40
2017,06,22,06,50,12.40
2017,06,22,06,51,12.40
2017,06,22,06,52,12.40
2017,06,22,06,53,12.40
2017,06,22,06,54,12.40
2017,06,22,06,55,12.40
2017,06,22,06,56,12.40
2017,06,22,06,57,12.40
2017,06,22,06,58,12.40
2017,06,22,06,59,12.40
2017,06,22,07,00,12.40
2017,06,22,07,01,12.40
2017,06,22,07,02,12.50
2017,06,22,07,03,12.50
2017,06,22,07,04,12.50
2017,06,22,07,05,12.50
2017,06,22,07,06,12.60
2017,06,22,07,07,12.60
2017,06,22,07,08,12.60
2017,06,22,07,09,12.60
2017,06,22,07,10,12.60
2017,06,22,07,11,12.70
2017,06,22,07,12,12.70
2017,06,22,07,13,12.70
2017,06,22,07,14,12.70
2017,06,22,07,15,12.80
2017,06,22,07,16,12.80
2017,06,22,07,17,12.80
2017,06,22,07,18,12.80
2017,06,22,07,19,12.80
2017,06,22,07,20,12.80
2017,06,22,07,21,12.80
2017,06,22,07,22,12.80
2017,06,22,07,23,12.80
2017,06,22,07,24,12.80
2017,06,22,07,25,12.90
2017,06,22,07,26,12.90
2017,06,22,07,27,12.90
2017,06,22,07,28,12.90
2017,06,22,07,29,12.90
2017,06,22,07,30,12.90
2017,06,22,07,31,12.90
2017,06,22,07,32,12.90
2017,06,22,07,33,12.90
2017,06,22,07,34,12.90
2017,06,22,07,35,12.90
2017,06,22,07,36,12.90
2017,06,22,07,37,12.90
2017,06,22,07,38,12.90
2017,06,22,07,39,12.90
2017,06,22,07,40,12.90
2017,06,22,07,41,12.90
2017,06,22,07,42,12.90
2017,06,22,07,43,12.90
2017,06,22,07,44,12.90
2017,06,22,07,45,13.00
2017,06,22,07,46,13.00
2017,06,22,07,47,13.10
2017,06,22,07,48,13.10
2017,06,22,07,49,13.10
2017,06,22,07,50,13.10
2017,06,22,07,51,13.10
2017,06,22,07,52,13.10
2017,06,22,07,53,13.10
2017,06,22,07,54,13.00
2017,06,22,07,55,13.00
2017,06,22,07,56,12.90
2017,06,22,07,57,13.00
2017,06,22,07,58,13.00
2017,06,22,07,59,13.00
2017,06,22,08,00,13.10
2017,06,22,08,01,13.10
2017,06,22,08,02,13.20
2017,06,22,08,03,13.20
2017,06,22,08,04,13.30
2017,06,22,08,05,13.30
2017,06,22,08,06,13.20
2017,06,22,08,07,13.20
2017,06,22,08,08,13.20
2017,06,22,08,09,13.20
2017,06,22,08,10,13.20
2017,06,22,08,11,13.30
2017,06,22,08,12,13.30
2017,06,22,08,13,13.30
2017,06,22,08,14,13.40
2017,06,22,08,15,13.40
2017,06,22,08,16,13.40
2017,06,22,08,17,13.50
2017,06,22,08,18,13.50
2017,06,22,08,19,13.60
2017,06,22,08,20,13.60
2017,06,22,08,21,13.60
2017,06,22,08,22,13.60
2017,06,22,08,23,13.60
2017,06,22,08,24,13.60
2017,06,22,08,25,13.60
2017,06,22,08,26,13.60
2017,06,22,08,27,13.60
2017,06,22,08,28,13.60
2017,06,22,08,29,13.60
2017,06,22,08,30,13.60
2017,06,22,08,31,13.70
2017,06,22,08,32,13.70
2017,06,22,08,33,13.80
2017,06,22,08,34,13.80
2017,06,22,08,35,13.80
2017,06,22,08,36,13.90
2017,06,22,08,37,13.90
2017,06,22,08,38,13.90
2017,06,22,08,39,13.90
2017,06,22,08,40,13.90
2017,06,22,08,41,13.90
2017,06,22,08,42,13.90
2017,06,22,08,43,13.90
2017,06,22,08,44,13.90
2017,06,22,08,45,13.90
2017,06,22,08,46,14.00
2017,06,22,08,47,14.00
2017,06,22,08,48,14.00
2017,06,22,08,49,14.10
2017,06,22,08,50,14.10
2017,06,22,08,51,14.10
2017,06,22,08,52,14.20
2017,06,22,08,53,14.30
2017,06,22,08,54,14.30
2017,06,22,08,55,14.30
2017,06,22,08,56,14.30
2017,06,22,08,57,14.30
2017,06,22,08,58,14.30
2017,06,22,08,59,14.30
2017,06,22,09,00,14.30
2017,06,22,09,01,14.20
2017,06,22,09,02,14.20
2017,06,22,09,03,14.20
2017,06,22,09,04,14.20
2017,06,22,09,05,14.20
2017,06,22,09,06,14.20
2017,06,22,09,07,14.30
2017,06,22,09,08,14.30
2017,06,22,09,09,14.30
2017,06,22,09,10,14.30
2017,06,22,09,11,14.30
2017,06,22,09,12,14.30
2017,06,22,09,13,14.30
2017,06,22,09,14,14.30
2017,06,22,09,15,14.30
2017,06,22,09,16,14.40
2017,06,22,09,17,14.50
2017,06,22,09,18,14.50
2017,06,22,09,19,14.50
2017,06,22,09,20,14.50
2017,06,22,09,21,14.60
2017,06,22,09,22,14.50
2017,06,22,09,23,14.50
2017,06,22,09,24,14.50
2017,06,22,09,25,14.40
2017,06,22,09,26,14.40
2017,06,22,09,27,14.50
2017,06,22,09,28,14.50
2017,06,22,09,29,14.50
2017,06,22,09,30,14.60
2017,06,22,09,31,14.70
2017,06,22,09,32,14.70
2017,06,22,09,33,14.70
2017,06,22,09,34,14.70
2017,06,22,09,35,14.70
2017,06,22,09,36,14.80
2017,06,22,09,37,14.80
2017,06,22,09,38,14.80
2017,06,22,09,39,14.80
2017,06,22,09,40,14.80
2017,06,22,09,41,14.80
2017,06,22,09,42,14.80
2017,06,22,09,43,14.80
2017,06,22,09,44,14.70
2017,06,22,09,45,14.70
2017,06,22,09,46,14.70
2017,06,22,09,47,14.80
2017,06,22,09,48,14.80
2017,06,22,09,49,14.90
2017,06,22,09,50,15.00
2017,06,22,09,51,14.90
2017,06,22,09,52,14.90
2017,06,22,09,53,14.90
2017,06,22,09,54,15.00
2017,06,22,09,55,15.00
2017,06,22,09,56,14.90
2017,06,22,09,57,15.00
2017,06,22,09,58,15.00
2017,06,22,09,59,15.00
2017,06,22,10,00,15.00
2017,06,22,10,01,15.00
2017,06,22,10,02,15.00
2017,06,22,10,03,15.00
2017,06,22,10,04,15.00
2017,06,22,10,05,15.00
2017,06,22,10,06,15.00
2017,06,22,10,07,15.00
2017,06,22,10,08,15.00
2017,06,22,10,09,15.00
2017,06,22,10,10,15.00
2017,06,22,10,11,15.00
2017,06,22,10,12,15.00
2017,06,22,10,13,15.00
2017,06,22,10,14,15.00
2017,06,22,10,15,15.00
2017,06,22,10,16,15.00
2017,06,22,10,17,15.00
2017,06,22,10,18,14.90
2017,06,22,10,19,14.90
2017,06,22,10,20,14.90
2017,06,22,10,21,15.00
2017,06,22,10,22,15.00
2017,06,22,10,23,14.90
2017,06,22,10,24,14.80
2017,06,22,10,25,14.60
2017,06,22,10,26,14.60
2017,06,22,10,27,14.50
2017,06,22,10,28,14.50
2017,06,22,10,29,14.50
2017,06,22,10,30,14.40
2017,06,22,10,31,14.50
2017,06,22,10,32,14.50
2017,06,22,10,33,14.60
2017,06,22,10,34,14.60
2017,06,22,10,35,14.60
2017,06,22,10,36,14.60
2017,06,22,10,37,14.60
2017,06,22,10,38,14.70
2017,06,22,10,39,14.70
2017,06,22,10,40,14.80
2017,06,22,10,41,14.80
2017,06,22,10,42,14.80
2017,06,22,10,43,14.80
2017,06,22,10,44,14.80
2017,06,22,10,45,14.80
2017,06,22,10,46,14.70
2017,06,22,10,47,14.70
2017,06,22,10,48,14.60
2017,06,22,10,49,14.70
2017,06,22,10,50,14.70
2017,06,22,10,51,14.60
2017,06,22,10,52,14.60
2017,06,22,10,53,14.70
2017,06,22,10,54,14.70
2017,06,22,10,55,14.80
2017,06,22,10,56,14.90
2017,06,22,10,57,14.90
2017,06,22,10,58,14.90
2017,06,22,10,59,15.00
2017,06,22,11,00,15.00
2017,06,22,11,01,15.00
2017,06,22,11,02,15.00
2017,06,22,11,03,15.00
2017,06,22,11,04,15.00
2017,06,22,11,05,15.00
2017,06,22,11,06,15.00
2017,06,22,11,07,15.00
2017,06,22,11,08,15.00
2017,06,22,11,09,15.00
2017,06,22,11,10,15.00
2017,06,22,11,11,15.00
2017,06,22,11,12,15.00
2017,06,22,11,13,15.00
2017,06,22,11,14,15.00
2017,06,22,11,15,15.00
2017,06,22,11,16,15.00
2017,06,22,11,17,15.00
2017,06,22,11,18,15.00
2017,06,22,11,19,15.00
2017,06,22,11,20,15.10
2017,06,22,11,21,15.20
2017,06,22,11,22,15.30
2017,06,22,11,23,15.40
2017,06,22,11,24,15.50
2017,06,22,11,25,15.60
2017,06,22,11,26,15.70
2017,06,22,11,27,15.80
2017,06,22,11,28,15.80
2017,06,22,11,29,15.90
2017,06,22,11,30,15.90
2017,06,22,11,31,16.00
2017,06,22,11,32,16.10
2017,06,22,11,33,16.00
2017,06,22,11,34,15.90
2017,06,22,11,35,15.90
2017,06,22,11,36,15.80
2017,06,22,11,37,15.80
2017,06,22,11,38,15.70
2017,06,22,11,39,15.60
2017,06,22,11,40,15.60
2017,06,22,11,41,15.50
2017,06,22,11,42,15.50
2017,06,22,11,43,15.40
2017,06,22,11,44,15.40
2017,06,22,11,45,15.40
2017,06,22,11,46,15.40
2017,06,22,11,47,15.50
2017,06,22,11,48,15.50
2017,06,22,11,49,15.50
2017,06,22,11,50,15.40
2017,06,22,11,51,15.40
2017,06,22,11,52,15.40
2017,06,22,11,53,15.50
2017,06,22,11,54,15.60
2017,06,22,11,55,15.70
2017,06,22,11,56,15.70
2017,06,22,11,57,15.80
2017,06,22,11,58,15.90
2017,06,22,11,59,15.90
2017,06,22,12,00,15.90
2017,06,22,12,01,15.90
2017,06,22,12,02,15.90
2017,06,22,12,03,15.90
2017,06,22,12,04,15.90
2017,06,22,12,05,15.90
2017,06,22,12,06,15.90
2017,06,22,12,07,15.90
2017,06,22,12,08,15.90
2017,06,22,12,09,15.80
2017,06,22,12,10,15.80
2017,06,22,12,11,15.80
2017,06,22,12,12,15.80
2017,06,22,12,13,15.80
2017,06,22,12,14,15.80
2017,06,22,12,15,15.80
2017,06,22,12,16,15.80
2017,06,22,12,17,15.70
2017,06,22,12,18,15.80
2017,06,22,12,19,15.90
2017,06,22,12,20,16.00
2017,06,22,12,21,16.10
2017,06,22,12,22,16.20
2017,06,22,12,23,16.30
2017,06,22,12,24,16.30
2017,06,22,12,25,16.40
2017,06,22,12,26,16.60
2017,06,22,12,27,16.60
2017,06,22,12,28,16.60
2017,06,22,12,29,16.60
2017,06,22,12,30,16.50
2017,06,22,12,31,16.40
2017,06,22,12,32,16.30
2017,06,22,12,33,16.20
2017,06,22,12,34,16.20
2017,06,22,12,35,16.20
2017,06,22,12,36,16.20
2017,06,22,12,37,16.20
2017,06,22,12,38,16.30
2017,06,22,12,39,16.40
2017,06,22,12,40,16.60
2017,06,22,12,41,16.70
2017,06,22,12,42,16.80
2017,06,22,12,43,17.00
2017,06,22,12,44,17.00
2017,06,22,12,45,17.00
2017,06,22,12,46,17.10
2017,06,22,12,47,17.10
2017,06,22,12,48,17.10
2017,06,22,12,49,17.20
2017,06,22,12,50,17.30
2017,06,22,12,51,17.30
2017,06,22,12,52,17.30
2017,06,22,12,53,17.30
2017,06,22,12,54,17.40
2017,06,22,12,55,17.50
2017,06,22,12,56,17.40
2017,06,22,12,57,17.40
2017,06,22,12,58,17.50
2017,06,22,12,59,17.50
2017,06,22,13,00,17.40
2017,06,22,13,01,17.30
2017,06,22,13,02,17.20
2017,06,22,13,03,17.20
2017,06,22,13,04,17.20
2017,06,22,13,05,17.20
2017,06,22,13,06,17.20
2017,06,22,13,07,17.10
2017,06,22,13,08,17.10
2017,06,22,13,09,17.20
2017,06,22,13,10,17.20
2017,06,22,13,11,17.20
2017,06,22,13,12,17.20
2017,06,22,13,13,17.00
2017,06,22,13,14,17.00
2017,06,22,13,15,17.00
2017,06,22,13,16,17.00
2017,06,22,13,17,17.10
2017,06,22,13,18,17.20
2017,06,22,13,19,17.30
2017,06,22,13,20,17.30
2017,06,22,13,21,17.40
2017,06,22,13,22,17.50
2017,06,22,13,23,17.50
2017,06,22,13,24,17.60
2017,06,22,13,25,17.60
2017,06,22,13,26,17.60
2017,06,22,13,27,17.50
2017,06,22,13,28,17.40
2017,06,22,13,29,17.40
2017,06,22,13,30,17.30
2017,06,22,13,31,17.30
2017,06,22,13,32,17.40
2017,06,22,13,33,17.50
2017,06,22,13,34,17.70
2017,06,22,13,35,17.70
2017,06,22,13,36,17.70
2017,06,22,13,37,17.70
2017,06,22,13,38,17.70
2017,06,22,13,39,17.60
2017,06,22,13,40,17.60
2017,06,22,13,41,17.70
2017,06,22,13,42,17.60
2017,06,22,13,43,17.50
2017,06,22,13,44,17.50
2017,06,22,13,45,17.50
2017,06,22,13,46,17.40
2017,06,22,13,47,17.40
2017,06,22,13,48,17.40
2017,06,22,13,49,17.40
2017,06,22,13,50,17.50
2017,06,22,13,51,17.60
2017,06,22,13,52,17.70
2017,06,22,13,53,17.70
2017,06,22,13,54,17.70
2017,06,22,13,55,17.70
2017,06,22,13,56,17.60
2017,06,22,13,57,17.60
2017,06,22,13,58,17.70
2017,06,22,13,59,17.80
2017,06,22,14,00,17.80
2017,06,22,14,01,17.80
2017,06,22,14,02,17.80
2017,06,22,14,03,17.80
2017,06,22,14,04,17.80
2017,06,22,14,05,17.80
2017,06,22,14,06,17.80
2017,06,22,14,07,17.90
2017,06,22,14,08,18.00
2017,06,22,14,09,18.00
2017,06,22,14,10,18.10
2017,06,22,14,11,18.20
2017,06,22,14,12,18.20
2017,06,22,14,13,18.30
2017,06,22,14,14,18.30
2017,06,22,14,15,18.30
2017,06,22,14,16,18.30
2017,06,22,14,17,18.20
2017,06,22,14,18,18.10
2017,06,22,14,19,18.10
2017,06,22,14,20,18.00
2017,06,22,14,21,17.90
2017,06,22,14,22,17.90
2017,06,22,14,23,17.90
2017,06,22,14,24,17.90
2017,06,22,14,25,17.90
2017,06,22,14,26,18.00
2017,06,22,14,27,18.00
2017,06,22,14,28,18.10
2017,06,22,14,29,18.10
2017,06,22,14,30,18.20
2017,06,22,14,31,18.30
2017,06,22,14,32,18.30
2017,06,22,14,33,18.30
2017,06,22,14,34,18.30
2017,06,22,14,35,18.30
2017,06,22,14,36,18.30
2017,06,22,14,37,18.30
2017,06,22,14,38,18.20
2017,06,22,14,39,18.20
2017,06,22,14,40,18.10
2017,06,22,14,41,18.10
2017,06,22,14,42,18.10
2017,06,22,14,43,18.00
2017,06,22,14,44,18.00
2017,06,22,14,45,18.00
2017,06,22,14,46,18.00
2017,06,22,14,47,18.10
2017,06,22,14,48,18.10
2017,06,22,14,49,18.10
2017,06,22,14,50,18.20
2017,06,22,14,51,18.20
2017,06,22,14,52,18.20
2017,06,22,14,53,18.30
2017,06,22,14,54,18.30
2017,06,22,14,55,18.30
2017,06,22,14,56,18.30
2017,06,22,14,57,18.30
2017,06,22,14,58,18.30
2017,06,22,14,59,18.30
2017,06,22,15,00,18.30
2017,06,22,15,01,18.30
2017,06,22,15,02,18.30
2017,06,22,15,03,18.30
2017,06,22,15,04,18.20
2017,06,22,15,05,18.20
2017,06,22,15,06,18.20
2017,06,22,15,07,18.20
2017,06,22,15,08,18.20
2017,06,22,15,09,18.30
2017,06,22,15,10,18.30
2017,06,22,15,11,18.30
2017,06,22,15,12,18.40
2017,06,22,15,13,18.40
2017,06,22,15,14,18.30
2017,06,22,15,15,18.40
2017,06,22,15,16,18.40
2017,06,22,15,17,18.50
2017,06,22,15,18,18.60
2017,06,22,15,19,18.50
2017,06,22,15,20,18.50
2017,06,22,15,21,18.50
2017,06,22,15,22,18.50
2017,06,22,15,23,18.50
2017,06,22,15,24,18.60
2017,06,22,15,25,18.50
2017,06,22,15,26,18.50
2017,06,22,15,27,18.50
2017,06,22,15,28,18.40
2017,06,22,15,29,18.40
2017,06,22,15,30,18.40
2017,06,22,15,31,18.30
2017,06,22,15,32,18.40
2017,06,22,15,33,18.60
2017,06,22,15,34,18.60
2017,06,22,15,35,18.70
2017,06,22,15,36,18.70
2017,06,22,15,37,18.80
2017,06,22,15,38,18.80
2017,06,22,15,39,18.70
2017,06,22,15,40,18.70
2017,06,22,15,41,18.60
2017,06,22,15,42,18.60
2017,06,22,15,43,18.60
2017,06,22,15,44,18.80
2017,06,22,15,45,18.90
2017,06,22,15,46,19.00
2017,06,22,15,47,19.20
2017,06,22,15,48,19.30
2017,06,22,15,49,19.30
2017,06,22,15,50,19.30
2017,06,22,15,51,19.30
2017,06,22,15,52,19.30
2017,06,22,15,53,19.20
2017,06,22,15,54,19.10
2017,06,22,15,55,19.10
2017,06,22,15,56,19.10
2017,06,22,15,57,19.10
2017,06,22,15,58,19.10
2017,06,22,15,59,19.00
2017,06,22,16,00,19.00
2017,06,22,16,01,19.10
2017,06,22,16,02,19.20
2017,06,22,16,03,19.20
2017,06,22,16,04,19.30
2017,06,22,16,05,19.40
2017,06,22,16,06,19.50
2017,06,22,16,07,19.60
2017,06,22,16,08,19.60
2017,06,22,16,09,19.70
2017,06,22,16,10,19.80
2017,06,22,16,11,19.80
2017,06,22,16,12,19.80
2017,06,22,16,13,19.80
2017,06,22,16,14,19.90
2017,06,22,16,15,19.90
2017,06,22,16,16,19.90
2017,06,22,16,17,19.90
2017,06,22,16,18,19.90
2017,06,22,16,19,19.90
2017,06,22,16,20,19.90
2017,06,22,16,21,19.90
2017,06,22,16,22,19.90
2017,06,22,16,23,20.00
2017,06,22,16,24,20.20
2017,06,22,16,25,20.40
2017,06,22,16,26,20.50
2017,06,22,16,27,20.60
2017,06,22,16,28,20.70
2017,06,22,16,29,20.80
2017,06,22,16,30,20.80
2017,06,22,16,31,20.80
2017,06,22,16,32,20.80
2017,06,22,16,33,20.80
2017,06,22,16,34,20.80
2017,06,22,16,35,20.80
2017,06,22,16,36,20.80
2017,06,22,16,37,20.80
2017,06,22,16,38,20.80
2017,06,22,16,39,20.90
2017,06,22,16,40,21.00
2017,06,22,16,41,21.10
2017,06,22,16,42,21.10
2017,06,22,16,43,21.10
2017,06,22,16,44,21.10
2017,06,22,16,45,21.10
2017,06,22,16,46,21.10
2017,06,22,16,47,21.20
2017,06,22,16,48,21.20
2017,06,22,16,49,21.20
2017,06,22,16,50,21.20
2017,06,22,16,51,21.30
2017,06,22,16,52,21.30
2017,06,22,16,53,21.40
2017,06,22,16,54,21.40
2017,06,22,16,55,21.40
2017,06,22,16,56,21.30
2017,06,22,16,57,21.30
2017,06,22,16,58,21.30
2017,06,22,16,59,21.30
2017,06,22,17,00,21.30
2017,06,22,17,01,21.20
2017,06,22,17,02,21.20
2017,06,22,17,03,21.20
2017,06,22,17,04,21.20
2017,06,22,17,05,21.30
2017,06,22,17,06,21.30
2017,06,22,17,07,21.30
2017,06,22,17,08,21.30
2017,06,22,17,09,21.30
2017,06,22,17,10,21.20
2017,06,22,17,11,21.20
2017,06,22,17,12,21.10
2017,06,22,17,13,21.20
2017,06,22,17,14,21.20
2017,06,22,17,15,21.10
2017,06,22,17,16,21.10
2017,06,22,17,17,21.10
2017,06,22,17,18,21.10
2017,06,22,17,19,21.00